Temp
2 2 1 0 -0 -1 -2 -3 -3 -4 -4 -5 -5 -5 -6 -6 -5 -5 -5 -5 -5 -5 -5 -4 -4 -4 -4 -4 -4 -3 -2 -1 -0 0 1 2 3 2 3 4 4 4 5 6 7 7 7
2 2 1 0 -0 -1 -2 -3 -3 -4 -5 -5 -5 -5 -6 -6 -6 -6 -5 -5 -5 -5 -5 -5 -5 -4 -4 -3 -2 -3 -2 -1 -1 -1 1 1 2 2 3 3 4 4 5 6 6 6 6
2 1 1 0 -1 -1 -2 -2 -3 -4 -5 -5 -5 -5 -6 -6 -6 -6 -5 -5 -5 -5 -5 -5 -5 -4 -4 -4 -4 -3 -3 -1 -1 -1 1 1 1 1 2 3 3 4 5 5 6 6 6
2 1 1 0 -0 -1 -1 -2 -3 -4 -5 -5 -6 -5 -5 -5 -5 -6 -5 -5 -5 -5 -5 -5 -4 -4 -4 -4 -4 -3 -4 -4 -2 -1 -1 0 0 1 2 3 3 4 4 4 4 5 5
2 2 1 0 -0 -1 -1 -2 -3 -4 -4 -5 -5 -5 -5 -5 -5 -5 -5 -4 -5 -5 -5 -5 -5 -5 -5 -4 -4 -3 -4 -5 -3 -2 -1 -0 -0 1 2 3 3 3 3 4 4 5 5
2 2 1 0 -0 -1 -1 -2 -2 -3 -4 -5 -4 -5 -5 -5 -4 -4 -5 -5 -4 -5 -4 -4 -4 -4 -5 -4 -4 -4 -5 -4 -3 -2 -2 -1 -0 1 2 2 2 2 3 4 4 4 5
2 2 1 0 0 -0 -1 -2 -2 -3 -4 -4 -4 -4 -4 -5 -5 -4 -4 -5 -4 -5 -4 -5 -5 -4 -5 -4 -5 -4 -4 -4 -3 -2 -1 -1 -0 -0 0 2 3 4 5 5 4 5 5
2 2 1 0 0 0 -1 -2 -2 -2 -3 -4 -4 -4 -4 -4 -4 -4 -4 -4 -5 -5 -6 -5 -5 -4 -4 -4 -4 -5 -5 -4 -2 -1 -1 -1 0 1 1 2 3 3 4 4 4 4 4
2 2 1 1 0 0 -0 -1 -2 -3 -3 -3 -3 -4 -4 -4 -4 -5 -5 -5 -5 -4 -5 -5 -5 -5 -4 -5 -5 -4 -3 -4 -2 -1 -0 -0 -0 0 1 3 3 3 3 4 4 4 4
2 3 1 1 0 0 -0 -1 -2 -3 -3 -3 -3 -3 -4 -4 -3 -3 -4 -4 -4 -4 -5 -5 -5 -5 -5 -5 -4 -4 -3 -2 -1 -0 0 -0 -0 1 1 2 3 3 3 3 4 4 3
2 2 2 1 1 0 -0 -1 -1 -2 -3 -4 -4 -4 -4 -4 -4 -3 -3 -3 -4 -3 -4 -5 -5 -5 -4 -4 -4 -4 -2 -1 -1 -0 0 -1 -1 -0 1 2 2 3 3 3 3 4 4
3 2 2 1 1 0 0 -0 -1 -1 -2 -3 -3 -4 -4 -4 -4 -3 -2 -3 -4 -4 -5 -5 -5 -5 -5 -4 -4 -3 -2 -1 -1 0 0 0 -0 0 1 1 2 3 3 3 3 3 3
3 3 2 2 1 1 0 0 -0 -1 -1 -2 -3 -3 -3 -3 -3 -3 -3 -3 -3 -5 -6 -5 -5 -5 -5 -4 -3 -2 -2 -1 -1 -1 -1 -1 -1 -0 1 1 2 2 2 1 2 2 4
3 3 3 2 2 1 1 0 -0 -0 -0 -1 -1 -2 -3 -3 -3 -3 -2 -3 -5 -6 -5 -5 -4 -4 -4 -4 -3 -2 -1 -1 -0 0 -1 -1 -2 -1 -0 1 1 1 2 2 3 4 4
3 3 3 2 2 2 1 1 1 0 0 -0 -0 -1 -2 -2 -1 -1 -1 -2 -5 -5 -4 -4 -4 -4 -3 -3 -3 -2 -1 -1 -2 -1 -0 -1 -2 -1 -1 -0 1 1 1 1 1 -0 0
3 3 3 2 2 2 2 2 1 1 1 0 0 0 -1 -1 -0 -1 -0 -2 -3 -3 -3 -3 -4 -3 -4 -3 -2 -2 -2 -1 -1 -0 0 -0 -2 -2 -1 -1 -0 1 1 0 1 1 3
3 3 3 3 2 3 3 2 2 1 1 1 1 1 0 -0 -1 -1 -2 -3 -4 -3 -3 -3 -2 -2 -2 -2 -2 -1 -2 -1 -1 -0 0 0 -0 -2 -2 -1 -0 0 0 1 1 0 3
3 3 3 3 3 3 3 3 2 2 2 2 1 1 1 1 0 -0 -2 -3 -3 -3 -3 -3 -3 -2 -2 -1 -1 -1 -1 -1 -1 -0 -0 0 0 -3 -2 -0 -0 0 0 0 1 -1 -1
3 3 3 3 3 3 3 3 3 3 3 2 2 1 1 1 1 0 -1 -1 -1 -2 -2 -2 -2 -1 -1 -1 -1 -1 -1 -1 -1 -1 -1 -0 -0 -2 -2 -1 -1 -0 0 0 0 0 -1
3 3 3 3 3 2 3 3 3 3 2 3 3 2 1 1 1 1 1 0 0 -0 -0 -1 -1 -2 -1 -2 -1 -1 -1 -1 -1 -1 -1 -0 0 0 2 0 0 0 1 0 -1 -1 0
3 3 3 3 3 3 2 3 3 3 3 2 2 2 2 2 1 1 1 1 1 1 0 0 -0 -0 -0 -1 -1 -1 -1 -1 -1 -1 -1 -1 -0 0 0 0 0 0 0 0 0 1 -0
3 3 3 2 3 3 3 2 3 3 3 2 2 2 2 2 2 1 1 1 1 1 1 0 0 0 0 0 0 -0 -0 -1 -1 -1 -1 -1 -0 0 1 1 1 1 1 0 0 -0 -0
3 3 3 2 2 3 3 3 3 3 3 3 2 2 2 2 2 2 1 1 1 1 0 0 0 0 -0 -0 -0 -0 -0 -0 -0 -0 -1 -1 -1 -0 -0 -0 -0 1 2 2 2 2 1
2 2 3 3 2 2 3 3 3 3 2 2 2 2 2 2 2 1 1 1 1 1 1 1 0 -0 -0 -0 -1 -1 -1 -1 -1 -0 -1 -1 -1 -1 -1 -0 0 2 2 2 2 2 2
2 2 2 2 3 2 2 3 3 2 3 2 2 2 2 2 2 2 1 1 1 1 1 1 1 0 -0 -0 -1 -1 -1 -1 -0 -0 -1 -1 -1 -1 -1 -1 2 2 2 2 2 2 2
2 2 2 2 2 2 2 2 3 3 2 2 2 2 2 2 2 2 2 1 1 1 1 1 1 1 0 -0 -0 -1 -1 -0 -0 0 0 -0 -1 -1 -2 -2 3 2 2 2 2 1 1
1 1 2 2 2 2 2 2 2 2 2 2 2 2 2 2 2 2 2 2 1 1 1 1 1 1 1 0 -0 -0 0 0 0 0 1 -0 -1 -2 -3 -2 1 1 1 1 1 1 1
1 1 1 1 2 2 2 2 2 2 2 2 2 1 2 2 2 2 2 2 2 1 1 1 1 1 1 1 1 1 0 1 1 1 1 1 0 -0 -1 -2 0 1 0 -0 -0 -0 -0
0 0 1 1 1 1 1 2 2 2 1 2 1 1 1 1 1 1 1 2 2 2 1 1 1 1 1 1 1 1 1 1 1 1 1 0 1 1 1 1 1 1 1 -0 -0 -0 -0
Height
3099 3096 3091 3085 3079 3071 3066 3060 3055 3051 3046 3042 3038 3034 3031 3027 3024 3020 3015 3011 3012 3014 3018 3020 3025 3031 3036 3040 3044 3045 3047 3056 3066 3072 3080 3087 3093 3099 3105 3110 3115 3120 3124 3130 3134 3137 3140
3100 3096 3091 3085 3079 3072 3066 3060 3055 3050 3045 3041 3038 3034 3030 3026 3024 3020 3016 3012 3013 3014 3015 3017 3024 3032 3037 3037 3039 3046 3048 3054 3062 3070 3078 3085 3092 3099 3104 3108 3115 3119 3124 3128 3132 3136 3139
3102 3097 3092 3085 3079 3073 3067 3061 3056 3051 3045 3041 3038 3034 3031 3027 3026 3023 3020 3018 3017 3017 3018 3020 3026 3032 3037 3041 3043 3045 3048 3053 3061 3069 3077 3084 3092 3098 3103 3108 3113 3118 3123 3127 3131 3134 3137
3102 3098 3092 3085 3079 3073 3069 3063 3057 3052 3047 3042 3039 3036 3034 3031 3029 3028 3027 3024 3023 3023 3024 3026 3029 3032 3036 3038 3040 3044 3049 3049 3061 3069 3078 3084 3091 3098 3102 3106 3113 3117 3123 3125 3129 3133 3135
3103 3099 3093 3086 3080 3074 3070 3065 3060 3054 3049 3045 3041 3039 3036 3034 3033 3033 3031 3029 3029 3028 3029 3030 3031 3033 3037 3039 3041 3044 3046 3050 3062 3071 3078 3085 3092 3097 3103 3106 3112 3115 3117 3122 3128 3130 3133
3104 3100 3094 3087 3082 3076 3071 3067 3063 3057 3052 3047 3044 3040 3039 3037 3035 3035 3034 3033 3032 3032 3032 3031 3033 3038 3039 3041 3044 3047 3048 3055 3066 3074 3079 3086 3092 3096 3101 3106 3106 3111 3116 3121 3125 3129 3131
3106 3101 3096 3089 3084 3078 3073 3069 3065 3061 3056 3050 3047 3044 3042 3040 3039 3038 3038 3036 3038 3037 3036 3032 3035 3036 3040 3044 3046 3050 3052 3060 3068 3074 3079 3086 3093 3097 3100 3104 3107 3112 3116 3119 3123 3126 3130
3107 3103 3097 3091 3085 3081 3075 3071 3068 3064 3060 3055 3050 3047 3046 3044 3043 3041 3041 3039 3038 3040 3039 3039 3039 3040 3042 3045 3050 3053 3059 3063 3070 3075 3082 3090 3092 3096 3101 3105 3108 3113 3116 3120 3123 3126 3129
3108 3104 3099 3094 3088 3083 3078 3073 3069 3066 3064 3061 3055 3051 3049 3048 3047 3048 3046 3044 3044 3043 3043 3045 3045 3046 3048 3051 3053 3058 3064 3067 3074 3080 3085 3089 3093 3097 3102 3106 3109 3112 3117 3119 3123 3125 3127
3109 3105 3101 3096 3091 3086 3081 3076 3072 3068 3065 3064 3061 3057 3054 3052 3053 3052 3051 3049 3047 3046 3049 3051 3050 3051 3052 3052 3054 3061 3067 3072 3076 3082 3087 3092 3095 3099 3103 3106 3110 3113 3116 3120 3123 3125 3128
3110 3106 3103 3098 3094 3089 3084 3080 3076 3072 3067 3064 3062 3060 3057 3055 3053 3053 3052 3050 3049 3048 3050 3058 3053 3054 3056 3058 3062 3066 3071 3076 3080 3084 3088 3094 3097 3101 3104 3108 3111 3114 3117 3120 3122 3124 3126
3111 3108 3104 3101 3096 3092 3087 3082 3078 3075 3071 3066 3063 3059 3057 3056 3054 3052 3052 3051 3052 3055 3060 3061 3059 3060 3060 3064 3067 3071 3075 3080 3083 3086 3090 3094 3099 3102 3105 3108 3111 3113 3118 3121 3123 3125 3126
3112 3109 3106 3102 3099 3095 3090 3086 3081 3078 3074 3070 3065 3061 3058 3055 3053 3051 3050 3052 3056 3058 3065 3067 3065 3065 3067 3070 3072 3076 3078 3081 3084 3089 3093 3097 3101 3103 3106 3110 3112 3115 3118 3122 3126 3124 3122
3113 3110 3107 3104 3100 3097 3093 3089 3085 3080 3077 3074 3070 3065 3062 3058 3054 3053 3052 3053 3055 3066 3064 3068 3068 3070 3072 3075 3077 3079 3082 3084 3087 3089 3093 3098 3107 3106 3108 3110 3112 3115 3117 3119 3117 3118 3120
3114 3111 3108 3105 3102 3099 3096 3092 3089 3084 3080 3078 3075 3071 3066 3064 3061 3058 3058 3055 3063 3067 3070 3070 3072 3074 3074 3077 3079 3083 3085 3087 3090 3092 3096 3099 3103 3106 3108 3110 3114 3115 3117 3119 3118 3120 3121
3115 3111 3109 3106 3103 3100 3097 3094 3091 3088 3084 3081 3080 3077 3073 3071 3069 3066 3063 3063 3069 3070 3071 3072 3073 3076 3078 3081 3083 3085 3087 3090 3092 3094 3095 3098 3103 3106 3108 3111 3113 3114 3117 3119 3118 3120 3116
3116 3112 3109 3106 3104 3101 3099 3096 3094 3091 3088 3085 3083 3080 3078 3077 3076 3076 3067 3071 3076 3076 3077 3078 3079 3081 3082 3082 3084 3085 3089 3092 3093 3095 3096 3098 3102 3109 3110 3110 3112 3114 3114 3115 3117 3118 3115
3116 3114 3110 3107 3104 3102 3100 3098 3096 3093 3090 3089 3086 3083 3083 3081 3082 3078 3077 3076 3077 3079 3080 3081 3083 3083 3083 3082 3084 3085 3087 3090 3093 3095 3097 3099 3101 3105 3108 3108 3109 3110 3111 3112 3114 3116 3115
3116 3114 3111 3108 3105 3102 3100 3098 3097 3095 3094 3091 3090 3087 3086 3085 3083 3081 3081 3082 3082 3083 3082 3082 3082 3082 3084 3085 3086 3086 3088 3090 3092 3095 3097 3099 3100 3104 3108 3110 3107 3106 3107 3108 3110 3111 3111
3114 3114 3112 3109 3106 3103 3100 3099 3097 3096 3094 3093 3092 3090 3090 3088 3085 3085 3084 3084 3084 3084 3084 3084 3085 3085 3086 3086 3087 3088 3089 3091 3092 3094 3095 3097 3098 3099 3100 3100 3101 3102 3103 3105 3108 3109 3107
3112 3112 3111 3109 3106 3104 3101 3099 3097 3096 3095 3094 3093 3092 3092 3091 3089 3088 3087 3086 3086 3086 3086 3086 3087 3087 3087 3087 3088 3089 3091 3092 3094 3095 3096 3097 3097 3098 3098 3098 3099 3100 3101 3101 3101 3103 3103
3110 3110 3110 3109 3106 3104 3102 3100 3098 3096 3094 3094 3094 3093 3092 3091 3090 3090 3090 3089 3088 3088 3088 3088 3088 3088 3089 3089 3090 3091 3092 3093 3094 3095 3095 3096 3096 3096 3096 3096 3096 3096 3096 3097 3097 3097 3095
3107 3107 3107 3107 3106 3104 3102 3100 3098 3096 3095 3093 3092 3092 3092 3091 3090 3091 3090 3090 3089 3089 3089 3088 3088 3088 3088 3089 3089 3090 3091 3092 3093 3093 3094 3095 3095 3095 3094 3093 3093 3092 3089 3090 3090 3089 3092
3103 3103 3104 3104 3103 3102 3101 3100 3098 3097 3095 3093 3092 3091 3091 3090 3089 3089 3089 3089 3089 3089 3089 3088 3088 3088 3089 3088 3088 3088 3088 3088 3089 3090 3091 3092 3093 3093 3092 3092 3092 3086 3086 3086 3085 3085 3087
3098 3099 3100 3101 3100 3100 3099 3098 3097 3096 3095 3093 3092 3091 3090 3088 3088 3088 3087 3087 3088 3088 3088 3088 3087 3087 3086 3086 3086 3086 3086 3087 3086 3086 3087 3089 3090 3091 3089 3088 3086 3085 3086 3086 3086 3086 3085
3093 3094 3095 3096 3096 3096 3096 3096 3095 3095 3093 3092 3091 3090 3089 3089 3088 3087 3086 3086 3086 3086 3086 3086 3085 3085 3086 3085 3085 3085 3085 3085 3084 3084 3084 3086 3087 3089 3088 3087 3084 3084 3084 3084 3084 3084 3083
3086 3088 3090 3091 3092 3092 3092 3092 3092 3092 3091 3091 3089 3089 3088 3088 3087 3086 3085 3085 3084 3084 3084 3084 3084 3083 3084 3084 3084 3084 3084 3084 3084 3083 3083 3083 3084 3084 3085 3084 3082 3081 3082 3082 3084 3087 3081
3079 3082 3084 3086 3087 3088 3089 3088 3088 3088 3088 3088 3087 3086 3086 3085 3085 3084 3084 3083 3082 3082 3082 3082 3083 3081 3081 3081 3082 3082 3082 3082 3081 3081 3080 3081 3081 3080 3081 3082 3081 3079 3080 3081 3080 3078 3075
3071 3075 3078 3080 3082 3083 3084 3084 3085 3084 3085 3084 3084 3083 3083 3083 3083 3082 3080 3080 3080 3080 3080 3080 3081 3080 3080 3080 3081 3080 3080 3079 3079 3079 3077 3080 3079 3079 3081 3079 3078 3077 3076 3074 3074 3072 3070
Wind_Speed
30 31 28 26 27 29 30 25 22 15 14 18 17 16 14 15 7 6 7 7 9 15 16 22 26 22 24 26 28 18 23 34 34 33 31 32 34 35 35 36 35 26 27 24 18 20 21
30 31 28 25 26 27 29 27 23 19 18 18 16 16 14 13 6 6 11 17 9 13 13 17 20 17 14 21 34 23 20 35 35 32 32 32 35 32 34 35 33 26 25 20 20 21 22
29 30 29 25 23 25 27 27 25 21 17 16 15 14 15 11 7 10 16 15 19 20 16 19 15 13 15 15 19 22 20 38 36 31 31 33 33 30 31 32 30 25 24 20 22 23 23
28 29 30 27 23 23 25 26 25 22 19 18 14 12 14 12 9 12 14 18 18 19 16 15 15 17 10 9 21 14 18 36 31 27 29 33 33 24 31 29 27 26 22 23 23 23 22
26 28 29 28 24 22 22 24 24 23 21 19 17 13 12 11 11 12 13 15 16 15 15 12 10 12 13 3 5 13 31 33 29 27 29 32 34 25 29 27 29 29 23 22 23 24 22
25 26 28 29 25 21 21 22 23 21 22 19 20 15 14 13 13 11 11 12 14 12 12 12 18 12 18 14 9 21 32 33 30 27 29 30 30 27 28 31 20 22 25 24 21 25 24
24 25 26 28 29 23 20 20 21 21 19 19 21 17 16 15 11 11 13 9 10 9 8 15 14 19 18 21 22 33 32 31 30 29 29 27 25 22 25 25 15 25 23 27 23 20 22
22 24 24 27 29 25 22 19 18 19 19 17 18 18 16 16 14 15 15 8 10 19 22 18 15 21 26 24 31 26 29 34 27 27 26 26 24 27 26 23 18 22 19 23 17 15 16
21 23 23 24 27 28 25 21 18 16 16 17 18 17 20 22 24 23 22 20 23 24 23 20 17 17 22 27 29 30 30 30 25 25 23 23 26 26 21 18 18 23 14 19 13 12 11
19 21 23 23 23 27 27 25 22 18 14 11 12 14 14 15 15 13 12 9 9 11 11 13 11 15 24 33 37 30 29 32 27 26 23 21 23 21 18 16 16 18 14 12 10 6 2
17 19 21 23 23 23 25 28 29 24 20 12 8 7 6 6 7 8 7 6 7 6 5 7 16 26 23 17 33 32 26 26 29 26 13 20 20 18 16 16 14 14 12 9 7 6 4
17 17 19 20 23 23 23 24 27 27 27 20 17 11 9 6 3 4 7 4 5 5 6 7 12 23 23 32 29 25 23 24 21 16 17 22 17 13 13 12 10 12 10 7 5 4 3
16 17 17 19 19 23 23 24 24 27 26 27 23 19 11 10 6 5 5 6 6 9 5 13 24 27 22 29 28 26 25 22 15 15 20 18 13 12 12 11 11 12 13 3 1 2 2
16 16 16 16 18 19 20 23 23 25 25 25 26 24 22 15 12 11 10 11 14 9 14 22 26 25 26 25 21 20 17 17 15 11 22 8 7 14 13 12 9 13 10 2 3 3 1
18 15 15 16 16 17 18 19 20 21 24 24 23 23 24 19 18 20 20 23 8 13 23 23 19 17 16 10 18 17 14 14 16 20 6 8 8 11 14 12 12 10 6 5 3 1 2
19 18 14 13 15 16 16 16 17 20 21 22 21 21 21 20 17 20 30 32 26 24 13 8 7 11 9 17 12 9 7 13 19 8 9 10 10 11 13 11 8 8 9 3 3 2 3
17 18 17 14 12 14 15 15 15 14 16 18 18 23 18 15 13 13 31 26 18 12 11 10 15 14 14 12 13 8 7 12 15 8 6 11 8 12 11 9 9 8 7 5 4 3 1
14 16 17 16 13 11 12 13 13 13 13 13 17 18 18 17 12 18 18 16 17 15 13 11 10 10 9 10 8 7 11 9 13 9 9 8 7 9 11 9 10 12 12 12 5 5 5
10 13 15 17 16 14 11 10 11 11 12 13 12 14 14 14 15 15 14 13 12 9 6 5 6 8 8 8 5 10 9 13 13 11 11 9 7 8 4 6 12 13 15 15 13 8 8
10 10 12 14 16 15 14 11 8 9 10 10 11 8 12 12 12 13 13 11 10 9 9 8 7 5 5 5 6 7 10 10 11 10 10 8 11 6 4 4 7 11 15 18 16 7 7
8 8 10 13 13 15 15 15 12 9 8 8 7 8 9 7 9 9 10 10 8 7 6 5 5 6 5 4 7 7 7 10 9 9 9 7 6 9 9 10 10 11 11 13 22 21 12
8 8 8 10 11 11 13 15 14 12 8 6 6 4 4 5 5 5 4 5 6 6 6 7 6 5 5 4 3 5 5 7 6 9 9 8 4 6 9 13 15 18 19 21 23 25 29
11 9 8 9 9 10 11 12 13 13 11 7 5 5 4 3 2 2 2 1 1 2 2 3 3 3 3 3 3 4 4 5 6 6 7 7 4 3 4 3 6 12 9 16 19 21 17
14 11 10 9 9 8 9 10 11 11 12 10 8 5 5 4 4 3 3 3 3 3 2 2 2 2 2 2 3 5 7 8 10 10 10 8 6 5 4 3 3 2 3 3 1 8 10
17 15 13 12 10 10 8 9 11 10 9 10 9 8 6 4 5 4 3 4 5 5 5 5 6 6 6 6 5 3 3 5 8 10 12 11 9 5 3 4 6 5 5 3 3 3 6
20 18 16 15 13 10 11 9 10 12 9 7 9 7 7 7 4 4 5 5 3 4 4 5 4 4 5 6 5 3 3 4 4 4 9 11 11 8 3 2 2 8 7 3 5 8 10
23 22 20 17 16 14 12 12 10 10 11 10 8 8 7 6 5 8 4 4 5 5 6 5 5 4 4 4 4 4 3 3 3 4 6 9 11 13 10 5 4 10 9 5 1 3 8
25 25 23 21 19 17 15 13 12 11 11 11 10 9 9 10 9 3 8 7 7 7 8 6 5 5 5 4 3 3 4 5 4 7 5 6 5 6 8 7 4 10 8 6 10 16 25
28 27 26 24 21 20 17 16 14 13 12 11 10 10 10 8 11 12 12 10 8 7 7 7 7 4 3 4 4 4 5 6 6 5 9 7 10 2 6 3 3 12 14 19 20 26 24
Wind_Direction
17 9 5 1 2 4 357 351 349 346 354 351 352 355 353 344 342 340 343 21 153 190 209 205 211 212 209 212 214 191 188 190 190 188 190 191 185 188 193 193 190 192 193 192 190 192 193
16 10 8 3 4 8 358 357 353 346 337 346 355 359 358 0 17 346 18 61 144 137 146 163 179 186 192 216 217 201 168 187 186 184 189 187 185 184 194 189 189 191 191 189 188 191 194
15 11 10 6 6 10 0 2 3 356 359 1 1 6 13 23 42 17 48 69 80 74 93 108 135 152 171 208 212 212 199 179 178 180 185 183 180 181 185 184 183 185 189 187 191 191 196
15 12 12 9 9 11 5 5 9 9 12 17 16 23 33 45 56 49 56 72 72 73 99 118 145 160 132 109 209 205 214 155 161 172 179 177 174 182 180 179 176 176 182 178 190 191 197
15 13 14 14 12 12 10 7 14 15 19 33 34 39 36 57 65 65 77 85 89 83 90 101 154 170 123 80 101 232 166 138 152 167 170 171 171 174 177 175 169 173 179 179 185 192 196
13 14 15 20 13 15 16 14 19 22 29 43 50 51 54 59 76 86 94 91 103 97 96 82 146 143 119 115 83 158 142 137 150 159 162 168 171 171 176 173 177 178 174 179 186 196 204
11 17 16 23 19 18 18 19 22 32 39 50 63 63 68 71 77 83 85 98 102 102 95 88 142 127 122 127 133 140 135 137 147 153 162 168 167 165 176 177 198 187 183 186 192 201 210
11 16 19 24 28 20 22 19 23 35 39 51 63 67 59 63 63 70 72 106 104 104 87 87 100 109 130 126 134 125 139 139 143 150 157 160 167 168 170 177 173 179 187 188 193 203 212
13 13 20 25 32 28 27 24 22 26 42 49 65 74 75 76 71 76 85 93 97 86 76 78 93 121 141 154 148 144 141 140 140 141 151 157 154 160 155 156 170 172 171 187 200 211 236
13 14 16 26 31 36 32 32 30 27 24 37 54 65 72 73 68 64 63 71 82 81 74 48 60 105 140 133 135 128 139 143 145 136 140 135 141 147 154 153 160 164 169 172 185 182 204
9 16 14 24 27 36 36 36 35 33 34 25 12 0 16 18 42 63 50 48 49 47 59 24 65 127 126 131 135 131 139 143 143 147 137 136 137 139 147 156 157 165 164 174 187 200 227
4 12 17 16 27 30 36 36 35 30 33 34 33 6 344 349 351 94 82 69 59 77 49 48 105 114 115 125 126 131 142 147 143 139 140 142 142 142 150 154 160 158 159 162 171 183 221
359 9 12 15 17 26 33 35 38 36 30 27 31 30 24 40 68 98 126 108 84 54 86 84 112 104 107 126 117 125 137 144 137 126 135 134 140 143 156 156 157 162 157 105 155 188 253
357 360 10 12 15 18 23 31 33 38 37 33 33 35 38 55 63 77 97 94 69 80 105 113 109 112 111 118 118 120 124 124 145 155 136 130 141 152 166 167 173 173 177 192 171 180 118
5 356 359 9 15 16 20 28 33 38 42 40 37 39 41 55 74 86 100 89 90 101 114 102 105 111 108 115 130 124 109 118 132 140 143 131 137 165 167 169 167 177 193 182 105 314 277
8 5 1 358 8 17 17 21 32 37 44 48 45 45 51 60 71 99 97 96 106 107 98 69 76 120 116 131 136 122 107 134 139 129 138 142 123 162 170 174 171 175 180 149 191 178 250
10 7 9 4 357 9 18 21 23 27 35 50 53 55 48 63 77 100 97 107 119 118 112 102 111 126 122 125 141 135 134 139 161 126 130 134 146 168 171 193 199 202 200 197 174 188 298
5 9 9 15 5 360 10 17 25 26 37 45 58 67 62 60 78 81 86 103 112 110 109 108 119 132 130 128 137 132 151 155 159 156 147 156 137 146 193 203 212 215 209 200 204 202 207
357 1 11 11 16 10 4 6 13 26 29 43 52 61 70 69 64 68 87 96 95 98 97 109 117 118 127 123 112 133 155 156 161 165 161 162 156 122 157 231 223 218 218 212 216 214 211
338 353 3 10 11 15 13 4 358 6 19 33 43 53 58 66 79 80 70 67 80 84 87 93 103 100 114 116 118 151 154 167 171 170 172 177 181 181 170 168 191 210 222 217 213 208 223
309 328 345 355 8 8 15 14 5 355 352 14 33 45 51 54 59 75 91 95 86 87 80 81 90 102 104 104 116 145 162 163 173 183 190 200 212 223 231 236 235 233 231 226 229 237 237
280 300 319 337 354 10 5 13 13 11 1 355 354 24 45 38 44 57 66 85 108 115 115 118 113 102 108 124 131 164 172 187 195 207 209 223 236 244 258 254 255 256 248 247 248 246 256
267 277 293 310 331 350 359 359 5 13 14 2 355 336 338 347 7 6 26 44 100 139 145 146 143 146 162 172 170 181 203 217 216 212 219 231 236 277 259 235 267 275 244 239 255 259 261
259 268 277 288 303 324 343 351 355 354 6 14 1 351 346 344 321 294 277 281 287 292 299 289 273 264 233 252 264 266 248 234 234 234 233 237 237 255 250 274 224 225 187 356 329 234 227
251 256 265 274 283 298 314 325 335 344 341 354 11 8 359 340 316 316 297 276 266 265 259 279 290 285 289 292 302 290 234 223 229 229 226 227 231 245 225 250 278 255 201 150 359 269 230
247 250 255 264 272 278 292 303 313 322 325 322 334 360 2 352 351 323 299 287 282 277 276 269 261 264 273 280 268 246 231 216 206 206 212 217 220 218 245 257 210 169 181 224 315 230 233
244 247 250 253 263 270 278 291 299 307 313 310 301 309 329 337 328 323 318 313 294 278 266 269 268 265 263 268 242 232 235 219 227 207 207 206 223 222 230 250 232 216 208 259 258 247 259
240 244 248 251 254 262 268 275 286 294 298 301 300 293 294 303 307 291 310 303 289 280 268 264 267 259 232 232 227 239 231 231 241 235 227 231 224 211 205 220 266 196 214 282 279 280 301
237 239 244 248 252 257 262 267 272 280 287 292 288 286 286 286 291 298 297 290 282 264 264 255 243 241 233 228 231 238 236 237 253 261 244 245 218 222 217 231 223 203 265 289 294 301 306